Погода в Велимче

Украина / Волынская область     51°34′48″N   24°44′00″E
темп.,
°C
ветер,
м/с
пор.,
м/с
влажн.,
%
обл.,
%
осадки,
мм/ч
давл.,
гПа
погр.,
м
6 марта, сб
сб623:00−2ссз247190 0.0 102393
02:00−3сз236645 0.0 102576
05:00−2зсз37640 0.0 1024286
08:00−2сз59710 0.0 1026613
11:00+1сз68460 0.0 10271675
14:00+2сз684234 0.1 10271851
17:00+1зсз5848100 0.0 10261552
20:00−2зюз366450 0.0 1026140
7 марта, вс
вс723:00−1зюз512640 0.0 1024379
02:00−1зюз715620 0.0 1022584
05:00−1зюз8166864 0.0 1019768
08:000з10167681 0.0 10171319
11:00+2з101682100 0.2 10161420
14:00+2з101467100 0.4 10151303
17:00+1з91476100 0.0 10141228
20:000з7148094 0.0 1014851
8 марта, пн
пн823:00−1з71386100 0.0 1013703
02:00−1з61293100 0.1 1013700
05:00−3ссв4694100 1.4 1012414
08:00−2з2477100 1.9 1014265
11:00+1сз566368 0.1 10151206
14:00+2сз575483 0.3 10151536
17:00+1сз5759100 0.2 10161185
20:00−2сз41079100 0.3 1017435
9 марта, вт
вт923:00−3сз498285 0.1 1018422
02:00−4сз488345 0.1 1020392
05:00−4ссз47840 0.0 1020547
08:00−5с477819 0.0 1023635
11:00−3ссв3457100 0.0 1024919
14:00−1ссв334162 0.0 10241222
17:00−1св22417 0.0 10241073
20:00−3в225320 0.0 102533
10 марта, ср
ср1023:00−4юв2254100 0.0 102568
02:00−4ююв235782 0.0 1025124
05:00−4ю23610 0.0 102484
08:00−4ююз24630 0.0 1025166
11:000зюз34440 0.0 10251052
14:00+2зюз44370 0.0 10241408
17:00+1зюз35440 0.0 10221132
20:00−2юз23570 0.0 102344